Regional Weather Roundup
Issued by NWS

Home | Current Version | Previous Version | Text Only | Print | Product List | Glossary On
Versions: 1 2 3 4 5 6 7 8 9 10 11 12 13 14 15 16 17 18 19 20 21 22 23 24 25 26 27 28 29 30 31 32 33 34 35 36 37 38 39 40 41 42 43 44 45 46 47 48 49 50
000
ASUS45 KREV 221310
RWRNV
NEVADA REGIONAL WEATHER ROUNDUP
NATIONAL WEATHER SERVICE RENO NV
500 AM PST MON DEC 22 2014

NOTE: "FAIR" INDICATES FEW OR NO CLOUDS BELOW 12,000 FEET WITH NO
SIGNIFICANT WEATHER AND/OR OBSTRUCTIONS TO VISIBILITY.

NVZ001-003-004-221400-
WESTERN NEVADA

CITY           SKY/WX    TMP DP  RH WIND       PRES   REMARKS
RENO           CLEAR     37  34  89 CALM      30.26F
CARSON CITY    FAIR      32  30  93 NW3       30.28F
MINDEN         FAIR      28  27  93 E6        30.29
SLIDE MTN        N/A     41  19  42 NW31        N/A
PYRAMID LAKE     N/A     52 N/A N/A CALM        N/A
FALLON         CLEAR     45  35  68 SW14      30.21F
LOVELOCK       CLEAR     37  33  85 CALM      30.19S
HAWTHORNE      CLEAR     39  34  81 SE13      30.23F
$$

NVZ002-CAZ072-073-221400-
NORTHERN AND CENTRAL SIERRA

CITY           SKY/WX    TMP DP  RH WIND       PRES   REMARKS
S. LAKE TAHOE  PTCLDY    30  24  78 SW5       30.31F
TRUCKEE        FOG       27  27 100 CALM      30.33S VSB 1/4
SQUAW VLY 8000   N/A     34  27  75 VRB13       N/A
BLUE CANYON    CLEAR     44  35  70 N5        30.31S
MAMMOTH LAKES  FAIR      32  18  55 NE3       30.34F
BRIDGEPORT     FAIR      25  19  78 CALM      30.33F
$$

NVZ030-031-036-221400-
NORTHERN NEVADA

CITY           SKY/WX    TMP DP  RH WIND       PRES   REMARKS
ELKO           CLOUDY    43  40  89 W14       30.09S
WINNEMUCCA     CLOUDY    50  38  63 SW13      30.16R
WENDOVER       CLOUDY    43  36  75 CALM      30.01R
$$

NVZ035-037-221400-
CENTRAL NEVADA

CITY           SKY/WX    TMP DP  RH WIND       PRES   REMARKS
ELY            CLOUDY    44  35  70 VRB3      30.14F
EUREKA           N/A     42  35  76 W7        30.16F
$$

NVZ013-014-221400-
SOUTH CENTRAL NEVADA

CITY           SKY/WX    TMP DP  RH WIND       PRES   REMARKS
TONOPAH        CLEAR     47  34  60 N16G24    30.24R
$$

NVZ017-020-022-221400-
SOUTHERN NEVADA

CITY           SKY/WX    TMP DP  RH WIND       PRES   REMARKS
LAS VEGAS      PTCLDY    45  37  73 S14       30.02F
N. LAS VEGAS   CLEAR     44  37  76 E9        30.06S
NELLIS AFB     CLEAR     42  39  86 N5        30.07F
HENDERSON      CLEAR     46  38  73 S13       30.08F
MERCURY        CLEAR     40  36  86 CALM      30.12F
$$



USA.gov is the U.S. government's official web portal to all federal, state and local government web resources and services.